Location: Ar Ranvel
(48.3000°N, 4.8833°W)
Time: 04:33:09
(UTC+00:00)

Cosmos 2322 Rocket - Pass Details

Date: 24 October 2021
Orbit: 832 x 851 km, 71.0° (Epoch: 01 December)

Event Time Altitude Azimuth Distance (km) Brightness Sun altitude
Exits shadow 04:58:27 36° 280° (W) 1,318 2.7 -19.6°
Maximum altitude 04:59:34 40° 253° (WSW) 1,235 2.6 -19.5°
Drops below altitude 10° 05:04:47 10° 185° (S) 2,464 4.5 -18.6°
Sets 05:07:22 0° 178° (S) 3,398 5.3 -18.2°
